| time (UTC) | temp F | wind direction | speed MPH | gust MPH | rain 1hr in | rain 24hr in | rain mn in | humidity % | barometer mb |
| 20260505124824 | 49 | 59 | 1.0 | 5.0 | 0.01 | 0.65 | 0.35 | 86 | 1009.7 |
| 20260505124322 | 49 | 99 | 4.0 | 6.0 | 0.02 | 0.65 | 0.35 | 85 | 1009.7 |
| 20260505123821 | 49 | 66 | 0.0 | 5.0 | 0.02 | 0.65 | 0.35 | 85 | 1009.3 |
| 20260505123320 | 49 | 30 | 0.0 | 3.0 | 0.02 | 0.65 | 0.35 | 85 | 1009.4 |
| 20260505122819 | 49 | 39 | 0.0 | 7.0 | 0.02 | 0.65 | 0.35 | 83 | 1009.6 |
| 20260505122318 | 49 | 73 | 0.0 | 7.0 | 0.02 | 0.65 | 0.35 | 82 | 1009.4 |
| 20260505121817 | 49 | 84 | 9.0 | 9.0 | 0.02 | 0.65 | 0.35 | 82 | 1009.2 |
| 20260505121316 | 49 | 52 | 8.0 | 9.0 | 0.02 | 0.65 | 0.35 | 82 | 1009.2 |
| 20260505120815 | 49 | 53 | 3.0 | 8.0 | 0.02 | 0.65 | 0.35 | 80 | 1009.2 |
| 20260505120314 | 49 | 59 | 5.0 | 12.0 | 0.01 | 0.64 | 0.34 | 79 | 1009.1 |
| 20260505115813 | 50 | 23 | 3.0 | 8.0 | 0.01 | 0.64 | 0.34 | 79 | 1009.1 |
| 20260505115312 | 50 | 61 | 0.0 | 7.0 | 0.01 | 0.64 | 0.34 | 79 | 1009.0 |
| 20260505114811 | 50 | 11 | 2.0 | 8.0 | 0.01 | 0.64 | 0.34 | 78 | 1008.9 |
| 20260505114310 | 51 | 77 | 0.0 | 8.0 | 0.00 | 0.63 | 0.33 | 77 | 1009.0 |
| 20260505113809 | 51 | 57 | 3.0 | 7.0 | 0.00 | 0.63 | 0.33 | 75 | 1008.9 |
| 20260505113308 | 51 | 82 | 2.0 | 6.0 | 0.00 | 0.63 | 0.33 | 75 | 1008.8 |
| 20260505112807 | 51 | 47 | 4.0 | 10.0 | 0.00 | 0.63 | 0.33 | 74 | 1009.0 |
| 20260505112306 | 50 | 11 | 4.0 | 10.0 | 0.00 | 0.63 | 0.33 | 76 | 1008.9 |
| 20260505111805 | 50 | 16 | 0.0 | 9.0 | 0.00 | 0.63 | 0.33 | 76 | 1008.8 |
| 20260505111304 | 50 | 45 | 1.0 | 7.0 | 0.00 | 0.63 | 0.33 | 77 | 1009.0 |
| 20260505110803 | 50 | 18 | 0.0 | 8.0 | 0.00 | 0.63 | 0.33 | 77 | 1008.7 |
| 20260505110302 | 50 | 60 | 7.0 | 11.0 | 0.00 | 0.63 | 0.33 | 78 | 1008.7 |
| 20260505101753 | 49 | 28 | 1.0 | 6.0 | 0.00 | 0.63 | 0.33 | 85 | 1008.6 |
| 20260505101252 | 49 | 59 | 3.0 | 9.0 | 0.00 | 0.63 | 0.33 | 85 | 1008.7 |
| 20260505100751 | 49 | 9 | 0.0 | 9.0 | 0.00 | 0.63 | 0.33 | 85 | 1008.7 |
| 20260505100250 | 49 | 14 | 4.0 | 10.0 | 0.00 | 0.63 | 0.33 | 86 | 1008.8 |
| 20260505095749 | 49 | 25 | 6.0 | 7.0 | 0.00 | 0.63 | 0.33 | 86 | 1009.1 |
| 20260505095248 | 49 | 12 | 0.0 | 7.0 | 0.00 | 0.63 | 0.33 | 86 | 1009.2 |
| 20260505094747 | 49 | 358 | 0.0 | 8.0 | 0.00 | 0.63 | 0.33 | 86 | 1009.0 |
| 20260505094246 | 50 | 32 | 0.0 | 8.0 | 0.00 | 0.63 | 0.33 | 85 | 1008.7 |
| 20260505093745 | 49 | 8 | 0.0 | 5.0 | 0.00 | 0.63 | 0.33 | 84 | 1008.7 |
| 20260505093244 | 49 | 74 | 3.0 | 8.0 | 0.00 | 0.63 | 0.33 | 84 | 1008.6 |
| 20260505092743 | 49 | 350 | 2.0 | 12.0 | 0.00 | 0.63 | 0.33 | 85 | 1008.5 |
| 20260505092242 | 49 | 21 | 2.0 | 9.0 | 0.00 | 0.63 | 0.33 | 84 | 1008.4 |
| 20260505091741 | 49 | 42 | 2.0 | 6.0 | 0.01 | 0.63 | 0.33 | 85 | 1008.3 |
| 20260505091240 | 49 | 60 | 0.0 | 8.0 | 0.01 | 0.63 | 0.33 | 85 | 1008.2 |
| 20260505090739 | 49 | 92 | 7.0 | 10.0 | 0.03 | 0.63 | 0.33 | 86 | 1007.7 |
| 20260505090238 | 49 | 98 | 7.0 | 11.0 | 0.06 | 0.63 | 0.33 | 85 | 1007.5 |
| 20260505085737 | 49 | 52 | 4.0 | 15.0 | 0.07 | 0.63 | 0.33 | 85 | 1007.3 |
| 20260505085236 | 49 | 8 | 9.0 | 13.0 | 0.09 | 0.63 | 0.33 | 85 | 1007.1 |
| 20260505084735 | 49 | 42 | 7.0 | 15.0 | 0.11 | 0.63 | 0.33 | 85 | 1006.9 |
| 20260505084234 | 49 | 343 | 7.0 | 17.0 | 0.14 | 0.63 | 0.33 | 86 | 1007.1 |
| 20260505083733 | 49 | 23 | 11.0 | 14.0 | 0.15 | 0.63 | 0.33 | 89 | 1006.9 |
| 20260505083232 | 48 | 33 | 8.0 | 16.0 | 0.18 | 0.63 | 0.33 | 91 | 1006.9 |
| 20260505082731 | 48 | 45 | 6.0 | 12.0 | 0.20 | 0.63 | 0.33 | 93 | 1006.8 |
| 20260505082230 | 48 | 59 | 10.0 | 14.0 | 0.21 | 0.63 | 0.33 | 95 | 1006.6 |
| 20260505081729 | 48 | 331 | 6.0 | 15.0 | 0.21 | 0.62 | 0.32 | 95 | 1007.0 |
| 20260505081228 | 49 | 77 | 7.0 | 14.0 | 0.21 | 0.61 | 0.31 | 94 | 1005.3 |
| 20260505080727 | 49 | 66 | 3.0 | 10.0 | 0.18 | 0.58 | 0.28 | 90 | 1007.3 |
| 20260505080226 | 50 | 39 | 5.0 | 9.0 | 0.17 | 0.57 | 0.27 | 86 | 1007.9 |
| 20260505075725 | 50 | 36 | 5.0 | 10.0 | 0.16 | 0.55 | 0.25 | 85 | 1007.9 |
| 20260505075224 | 50 | 92 | 3.0 | 7.0 | 0.14 | 0.53 | 0.23 | 85 | 1008.0 |
| 20260505074723 | 51 | 39 | 4.0 | 10.0 | 0.12 | 0.51 | 0.21 | 82 | 1008.4 |
| 20260505074222 | 51 | 11 | 3.0 | 7.0 | 0.10 | 0.49 | 0.19 | 81 | 1008.7 |
| 20260505073721 | 52 | 19 | 1.0 | 7.0 | 0.08 | 0.47 | 0.17 | 77 | 1008.8 |
| 20260505073220 | 53 | 35 | 1.0 | 8.0 | 0.05 | 0.44 | 0.14 | 76 | 1008.7 |
| 20260505072719 | 53 | 336 | 1.0 | 3.0 | 0.04 | 0.43 | 0.13 | 72 | 1009.4 |
| 20260505072218 | 54 | 268 | 0.0 | 2.0 | 0.02 | 0.41 | 0.11 | 71 | 1009.0 |
| 20260505071717 | 54 | 329 | 0.0 | 4.0 | 0.02 | 0.41 | 0.11 | 71 | 1008.7 |
| 20260505071216 | 55 | 347 | 0.0 | 2.0 | 0.01 | 0.40 | 0.10 | 69 | 1008.2 |
| 20260505070715 | 55 | 326 | 0.0 | 3.0 | 0.01 | 0.40 | 0.10 | 67 | 1008.0 |
| 20260505070214 | 56 | 360 | 3.0 | 7.0 | 0.00 | 0.39 | 0.09 | 65 | 1007.6 |
| 20260505065713 | 56 | 345 | 2.0 | 10.0 | 0.00 | 0.39 | 0.09 | 63 | 1007.4 |
| 20260505065212 | 57 | 5 | 6.0 | 9.0 | 0.00 | 0.39 | 0.09 | 61 | 1007.0 |
| 20260505064711 | 57 | 1 | 4.0 | 9.0 | 0.00 | 0.39 | 0.09 | 58 | 1006.9 |
| 20260505064210 | 58 | 334 | 0.0 | 10.0 | 0.00 | 0.39 | 0.09 | 57 | 1006.5 |
| 20260505063709 | 58 | 357 | 6.0 | 15.0 | 0.00 | 0.39 | 0.09 | 57 | 1006.4 |
| 20260505063208 | 58 | 14 | 4.0 | 17.0 | 0.00 | 0.39 | 0.09 | 57 | 1006.1 |
| 20260505062707 | 58 | 8 | 8.0 | 15.0 | 0.00 | 0.39 | 0.09 | 58 | 1006.1 |
| 20260505062206 | 58 | 53 | 3.0 | 12.0 | 0.01 | 0.39 | 0.09 | 61 | 1006.6 |
| 20260505061705 | 58 | 348 | 3.0 | 15.0 | 0.01 | 0.39 | 0.09 | 62 | 1006.2 |
| 20260505061204 | 58 | 23 | 8.0 | 15.0 | 0.01 | 0.39 | 0.09 | 62 | 1006.0 |
| 20260505060703 | 58 | 15 | 7.0 | 10.0 | 0.01 | 0.39 | 0.09 | 68 | 1005.7 |
| 20260505060202 | 59 | 22 | 1.0 | 8.0 | 0.03 | 0.39 | 0.09 | 69 | 1005.4 |
| 20260505055701 | 59 | 1 | 4.0 | 10.0 | 0.11 | 0.39 | 0.09 | 68 | 1005.2 |
| 20260505055200 | 59 | 8 | 3.0 | 16.0 | 0.37 | 0.39 | 0.09 | 67 | 1005.1 |
| 20260505054659 | 58 | 19 | 5.0 | 14.0 | 0.39 | 0.39 | 0.09 | 71 | 1004.9 |
| 20260505054158 | 58 | 11 | 5.0 | 13.0 | 0.39 | 0.39 | 0.09 | 73 | 1004.7 |
| 20260505053657 | 58 | 22 | 7.0 | 12.0 | 0.39 | 0.39 | 0.09 | 79 | 1004.9 |
| 20260505053156 | 57 | 22 | 4.0 | 8.0 | 0.39 | 0.39 | 0.09 | 82 | 1005.1 |
| 20260505052655 | 57 | 8 | 5.0 | 6.0 | 0.39 | 0.39 | 0.09 | 85 | 1005.0 |
| 20260505052154 | 57 | 350 | 2.0 | 5.0 | 0.38 | 0.38 | 0.08 | 85 | 1005.0 |
| 20260505051653 | 57 | 53 | 2.0 | 8.0 | 0.38 | 0.38 | 0.08 | 84 | 1004.9 |
| 20260505051152 | 57 | 64 | 6.0 | 11.0 | 0.38 | 0.38 | 0.08 | 83 | 1004.6 |
| 20260505050651 | 58 | 90 | 8.0 | 8.0 | 0.38 | 0.38 | 0.08 | 81 | 1004.8 |
| 20260505050150 | 58 | 1 | 1.0 | 13.0 | 0.32 | 0.32 | 0.02 | 79 | 1004.5 |
| 20260505041641 | 71 | 5 | 0.0 | 3.0 | 0.00 | 0.00 | 0.00 | 65 | 1003.5 |
| 20260505041140 | 71 | 338 | 0.0 | 4.0 | 0.00 | 0.00 | 0.00 | 65 | 1003.5 |
| 20260505040639 | 71 | 327 | 1.0 | 4.0 | 0.00 | 0.00 | 0.00 | 66 | 1003.6 |
| 20260505040138 | 71 | 191 | 0.0 | 1.0 | 0.00 | 0.00 | 0.00 | 66 | 1003.3 |
| 20260505035637 | 72 | 154 | 0.0 | 6.0 | 0.00 | 0.00 | 0.00 | 64 | 1003.0 |
| 20260505035136 | 72 | 111 | 0.0 | 8.0 | 0.00 | 0.00 | 0.00 | 64 | 1003.0 |
| 20260505034635 | 72 | 203 | 4.0 | 10.0 | 0.00 | 0.00 | 0.00 | 64 | 1003.0 |
| 20260505034134 | 72 | 82 | 0.0 | 6.0 | 0.00 | 0.00 | 0.00 | 64 | 1003.0 |
| 20260505033633 | 72 | 196 | 0.0 | 6.0 | 0.00 | 0.00 | 0.00 | 64 | 1003.0 |
| 20260505033132 | 71 | 191 | 1.0 | 5.0 | 0.00 | 0.00 | 0.00 | 64 | 1003.0 |
| 20260505032631 | 71 | 136 | 0.0 | 0.0 | 0.00 | 0.00 | 0.00 | 63 | 1003.1 |
| 20260505032130 | 71 | 136 | 0.0 | 4.0 | 0.00 | 0.00 | 0.00 | 62 | 1002.9 |
| 20260505031629 | 71 | 184 | 0.0 | 0.0 | 0.00 | 0.00 | 0.00 | 63 | 1002.9 |
| 20260505031128 | 71 | 240 | 0.0 | 1.0 | 0.00 | 0.00 | 0.00 | 62 | 1002.8 |
| 20260505030627 | 70 | 240 | 0.0 | 0.0 | 0.00 | 0.00 | 0.00 | 62 | 1002.8 |
| 20260505030126 | 70 | 240 | 0.0 | 0.0 | 0.00 | 0.00 | 0.00 | 61 | 1002.7 |
| 20260505025625 | 70 | 240 | 0.0 | 0.0 | 0.00 | 0.00 | 0.00 | 61 | 1002.7 |
| 20260505025124 | 70 | 240 | 0.0 | 0.0 | 0.00 | 0.00 | 0.00 | 61 | 1002.7 |
| 20260505024623 | 70 | 240 | 0.0 | 0.0 | 0.00 | 0.00 | 0.00 | 61 | 1002.6 |
| 20260505024122 | 70 | 240 | 0.0 | 0.0 | 0.00 | 0.00 | 0.00 | 61 | 1002.5 |
| 20260505023621 | 70 | 240 | 0.0 | 0.0 | 0.00 | 0.00 | 0.00 | 60 | 1002.5 |
| 20260505023120 | 70 | 240 | 0.0 | 0.0 | 0.00 | 0.00 | 0.00 | 60 | 1002.5 |
| 20260505022619 | 70 | 240 | 0.0 | 0.0 | 0.00 | 0.00 | 0.00 | 60 | 1002.3 |
| 20260505022118 | 70 | 240 | 0.0 | 0.0 | 0.00 | 0.00 | 0.00 | 60 | 1002.2 |
| 20260505021617 | 70 | 240 | 0.0 | 0.0 | 0.00 | 0.00 | 0.00 | 59 | 1002.1 |
| 20260505021116 | 71 | 240 | 0.0 | 0.0 | 0.00 | 0.00 | 0.00 | 59 | 1002.1 |
| 20260505020615 | 71 | 240 | 0.0 | 0.0 | 0.00 | 0.00 | 0.00 | 58 | 1002.1 |
| 20260505020114 | 71 | 240 | 0.0 | 0.0 | 0.00 | 0.00 | 0.00 | 58 | 1002.0 |
| 20260505015613 | 71 | 240 | 0.0 | 0.0 | 0.00 | 0.00 | 0.00 | 58 | 1001.9 |
| 20260505015112 | 72 | 240 | 0.0 | 0.0 | 0.00 | 0.00 | 0.00 | 56 | 1001.9 |
| 20260505014611 | 72 | 240 | 0.0 | 0.0 | 0.00 | 0.00 | 0.00 | 56 | 1001.8 |
| 20260505014110 | 72 | 240 | 0.0 | 0.0 | 0.00 | 0.00 | 0.00 | 56 | 1001.7 |
| 20260505013609 | 73 | 240 | 0.0 | 0.0 | 0.00 | 0.00 | 0.00 | 55 | 1001.6 |
| 20260505013108 | 73 | 240 | 0.0 | 0.0 | 0.00 | 0.00 | 0.00 | 54 | 1001.6 |
| 20260505012607 | 73 | 240 | 0.0 | 0.0 | 0.00 | 0.00 | 0.00 | 53 | 1001.6 |
| 20260505012106 | 74 | 240 | 0.0 | 0.0 | 0.00 | 0.00 | 0.00 | 52 | 1001.6 |
| 20260505011605 | 74 | 240 | 0.0 | 0.0 | 0.00 | 0.00 | 0.00 | 52 | 1001.6 |
| 20260505011104 | 75 | 240 | 0.0 | 0.0 | 0.00 | 0.00 | 0.00 | 52 | 1001.5 |
| 20260505010603 | 75 | 240 | 0.0 | 0.0 | 0.00 | 0.00 | 0.00 | 51 | 1001.4 |
| 20260505005601 | 76 | 240 | 0.0 | 0.0 | 0.00 | 0.00 | 0.00 | 50 | 1001.3 |
| 20260505005100 | 76 | 240 | 0.0 | 0.0 | 0.00 | 0.00 | 0.00 | 49 | 1001.2 |
| 20260505004559 | 77 | 240 | 0.0 | 0.0 | 0.00 | 0.00 | 0.00 | 48 | 1001.2 |
| 20260505004058 | 77 | 240 | 0.0 | 0.0 | 0.00 | 0.00 | 0.00 | 47 | 1001.2 |
| 20260505003557 | 77 | 240 | 0.0 | 0.0 | 0.00 | 0.00 | 0.00 | 47 | 1001.0 |
| 20260505003056 | 78 | 240 | 0.0 | 0.0 | 0.00 | 0.00 | 0.00 | 47 | 1001.0 |
| 20260505002555 | 78 | 240 | 0.0 | 0.0 | 0.00 | 0.00 | 0.00 | 47 | 1001.0 |
| 20260505002055 | 78 | 240 | 0.0 | 0.0 | 0.00 | 0.00 | 0.00 | 47 | 1001.0 |
| 20260505001553 | 78 | 240 | 0.0 | 0.0 | 0.00 | 0.00 | 0.00 | 46 | 1001.0 |
| 20260505001053 | 78 | 240 | 0.0 | 0.0 | 0.00 | 0.00 | 0.00 | 46 | 1001.0 |
| 20260505000552 | 78 | 240 | 0.0 | 0.0 | 0.00 | 0.00 | 0.00 | 45 | 1001.0 |
| 20260505000051 | 78 | 240 | 0.0 | 0.0 | 0.00 | 0.00 | 0.00 | 44 | 1001.0 |
| 20260504235549 | 79 | 240 | 0.0 | 0.0 | 0.00 | 0.00 | 0.00 | 44 | 1001.0 |
| 20260504235048 | 79 | 240 | 0.0 | 0.0 | 0.00 | 0.00 | 0.00 | 43 | 1001.0 |
| 20260504234547 | 79 | 240 | 0.0 | 0.0 | 0.00 | 0.00 | 0.00 | 42 | 1001.0 |
| 20260504234046 | 79 | 240 | 0.0 | 0.0 | 0.00 | 0.00 | 0.00 | 43 | 1001.0 |
| 20260504233545 | 79 | 240 | 0.0 | 3.0 | 0.00 | 0.00 | 0.00 | 41 | 1001.2 |
| 20260504233044 | 79 | 293 | 0.0 | 0.0 | 0.00 | 0.00 | 0.00 | 41 | 1001.2 |
| 20260504232543 | 79 | 293 | 0.0 | 0.0 | 0.00 | 0.00 | 0.00 | 41 | 1001.0 |
| 20260504232042 | 80 | 293 | 0.0 | 0.0 | 0.00 | 0.00 | 0.00 | 40 | 1001.2 |
| 20260504231541 | 80 | 293 | 0.0 | 1.0 | 0.00 | 0.00 | 0.00 | 40 | 1001.0 |
| 20260504231041 | 80 | 210 | 8.0 | 8.0 | 0.00 | 0.00 | 0.00 | 40 | 1001.2 |
| 20260504230539 | 80 | 227 | 0.0 | 5.0 | 0.00 | 0.00 | 0.00 | 39 | 1001.2 |
| 20260504230038 | 80 | 225 | 0.0 | 0.0 | 0.00 | 0.00 | 0.00 | 40 | 1001.2 |
| 20260504225537 | 80 | 225 | 0.0 | 7.0 | 0.00 | 0.00 | 0.00 | 39 | 1001.2 |
| 20260504225037 | 80 | 196 | 0.0 | 0.0 | 0.00 | 0.00 | 0.00 | 39 | 1001.2 |
| 20260504224535 | 80 | 196 | 0.0 | 3.0 | 0.00 | 0.00 | 0.00 | 40 | 1001.0 |
| 20260504224034 | 80 | 241 | 0.0 | 2.0 | 0.00 | 0.00 | 0.00 | 40 | 1001.2 |
| 20260504223533 | 80 | 171 | 0.0 | 0.0 | 0.00 | 0.00 | 0.00 | 40 | 1001.2 |
| 20260504223032 | 80 | 171 | 0.0 | 2.0 | 0.00 | 0.00 | 0.00 | 42 | 1001.2 |
| 20260504222531 | 79 | 212 | 0.0 | 2.0 | 0.00 | 0.00 | 0.00 | 42 | 1001.2 |
| 20260504222030 | 79 | 220 | 0.0 | 0.0 | 0.00 | 0.00 | 0.00 | 43 | 1001.3 |
| 20260504221529 | 79 | 220 | 0.0 | 5.0 | 0.00 | 0.00 | 0.00 | 42 | 1001.4 |
| 20260504221028 | 79 | 239 | 0.0 | 6.0 | 0.00 | 0.00 | 0.00 | 42 | 1001.3 |
| 20260504220528 | 79 | 191 | 0.0 | 6.0 | 0.00 | 0.00 | 0.00 | 41 | 1001.3 |
| 20260504220026 | 79 | 254 | 0.0 | 13.0 | 0.00 | 0.00 | 0.00 | 44 | 1001.4 |
| 20260504215525 | 79 | 217 | 3.0 | 8.0 | 0.00 | 0.00 | 0.00 | 43 | 1001.4 |
| 20260504215024 | 79 | 240 | 3.0 | 10.0 | 0.00 | 0.00 | 0.00 | 42 | 1001.5 |
| 20260504214701 | 79 | 270 | 5.0 | 9.0 | 0.00 | 0.00 | 0.00 | 42 | 1001.5 |
| 20260504214523 | 79 | 270 | 5.0 | 9.0 | 0.00 | 0.00 | 0.00 | 42 | 1001.5 |
| 20260504214400 | 80 | 171 | 4.0 | 12.0 | 0.00 | 0.00 | 0.00 | 41 | 1001.5 |
| 20260504214022 | 80 | 270 | 1.0 | 10.0 | 0.00 | 0.00 | 0.00 | 42 | 1001.5 |
| 20260504213521 | 80 | 171 | 4.0 | 12.0 | 0.00 | 0.00 | 0.00 | 41 | 1001.5 |
| 20260504213020 | 80 | 206 | 3.0 | 3.0 | 0.00 | 0.00 | 0.00 | 43 | 1001.5 |
| 20260504212519 | 80 | 264 | 0.0 | 8.0 | 0.00 | 0.00 | 0.00 | 42 | 1001.5 |
| 20260504212018 | 80 | 177 | 3.0 | 12.0 | 0.00 | 0.00 | 0.00 | 41 | 1001.5 |
| 20260504211517 | 80 | 212 | 2.0 | 11.0 | 0.00 | 0.00 | 0.00 | 39 | 1001.5 |
| 20260504211016 | 81 | 232 | 1.0 | 20.0 | 0.00 | 0.00 | 0.00 | 41 | 1001.4 |
| 20260504210515 | 81 | 213 | 6.0 | 13.0 | 0.00 | 0.00 | 0.00 | 39 | 1001.4 |
| 20260504210014 | 82 | 164 | 1.0 | 14.0 | 0.00 | 0.00 | 0.00 | 38 | 1001.5 |
| 20260504205513 | 82 | 216 | 0.0 | 6.0 | 0.00 | 0.00 | 0.00 | 35 | 1001.6 |
| 20260504205012 | 82 | 270 | 0.0 | 0.0 | 0.00 | 0.00 | 0.00 | 38 | 1001.6 |
| 20260504204511 | 82 | 270 | 0.0 | 5.0 | 0.00 | 0.00 | 0.00 | 35 | 1001.7 |
| 20260504204010 | 82 | 260 | 2.0 | 8.0 | 0.00 | 0.00 | 0.00 | 33 | 1001.7 |
| 20260504203509 | 82 | 225 | 0.0 | 6.0 | 0.00 | 0.00 | 0.00 | 35 | 1001.9 |
| 20260504203008 | 82 | 213 | 0.0 | 7.0 | 0.00 | 0.00 | 0.00 | 35 | 1001.8 |
| 20260504202507 | 82 | 104 | 0.0 | 7.0 | 0.00 | 0.00 | 0.00 | 38 | 1001.8 |
| 20260504202006 | 82 | 180 | 0.0 | 5.0 | 0.00 | 0.00 | 0.00 | 39 | 1001.9 |
| 20260504201505 | 82 | 227 | 0.0 | 7.0 | 0.00 | 0.00 | 0.00 | 40 | 1001.9 |
| 20260504201004 | 82 | 191 | 0.0 | 10.0 | 0.00 | 0.00 | 0.00 | 38 | 1001.9 |
| 20260504200503 | 82 | 187 | 7.0 | 11.0 | 0.00 | 0.00 | 0.00 | 36 | 1001.9 |
| 20260504200002 | 82 | 206 | 2.0 | 2.0 | 0.00 | 0.00 | 0.00 | 36 | 1002.0 |
| 20260504195502 | 82 | 188 | 1.0 | 6.0 | 0.00 | 0.00 | 0.00 | 36 | 1002.0 |
| 20260504195000 | 81 | 184 | 0.0 | 7.0 | 0.00 | 0.00 | 0.00 | 38 | 1002.0 |
| 20260504194459 | 81 | 230 | 0.0 | 9.0 | 0.00 | 0.00 | 0.00 | 37 | 1002.0 |
| 20260504193958 | 81 | 253 | 3.0 | 9.0 | 0.00 | 0.00 | 0.00 | 38 | 1002.0 |
| 20260504193457 | 81 | 167 | 0.0 | 6.0 | 0.00 | 0.00 | 0.00 | 38 | 1002.0 |
| 20260504192957 | 81 | 253 | 0.0 | 6.0 | 0.00 | 0.00 | 0.00 | 38 | 1002.0 |
| 20260504192455 | 81 | 195 | 0.0 | 15.0 | 0.00 | 0.00 | 0.00 | 39 | 1002.0 |
| 20260504191954 | 80 | 323 | 2.0 | 8.0 | 0.00 | 0.00 | 0.00 | 40 | 1002.1 |
| 20260504191453 | 80 | 191 | 0.0 | 4.0 | 0.00 | 0.00 | 0.00 | 41 | 1002.1 |
| 20260504190952 | 80 | 157 | 0.0 | 3.0 | 0.00 | 0.00 | 0.00 | 41 | 1002.2 |
| 20260504190451 | 80 | 232 | 3.0 | 8.0 | 0.00 | 0.00 | 0.00 | 39 | 1002.3 |
| 20260504185950 | 80 | 264 | 3.0 | 10.0 | 0.00 | 0.00 | 0.00 | 39 | 1002.3 |
| 20260504185449 | 80 | 229 | 2.0 | 10.0 | 0.00 | 0.00 | 0.00 | 42 | 1002.3 |
| 20260504184948 | 79 | 181 | 0.0 | 10.0 | 0.00 | 0.00 | 0.00 | 40 | 1002.3 |
| 20260504184447 | 79 | 217 | 0.0 | 8.0 | 0.00 | 0.00 | 0.00 | 42 | 1002.3 |
| 20260504183946 | 79 | 253 | 0.0 | 9.0 | 0.00 | 0.00 | 0.00 | 42 | 1002.3 |
| 20260504183446 | 79 | 227 | 4.0 | 11.0 | 0.00 | 0.00 | 0.00 | 39 | 1002.4 |
| 20260504182945 | 79 | 244 | 0.0 | 1.0 | 0.00 | 0.00 | 0.00 | 42 | 1002.4 |
| 20260504182443 | 78 | 274 | 2.0 | 4.0 | 0.00 | 0.00 | 0.00 | 42 | 1002.4 |
| 20260504181942 | 78 | 191 | 0.0 | 9.0 | 0.00 | 0.00 | 0.00 | 42 | 1002.5 |
| 20260504181441 | 78 | 185 | 2.0 | 6.0 | 0.00 | 0.00 | 0.00 | 41 | 1002.5 |
| 20260504180940 | 78 | 274 | 0.0 | 9.0 | 0.00 | 0.00 | 0.00 | 41 | 1002.5 |
| 20260504180439 | 78 | 165 | 4.0 | 11.0 | 0.00 | 0.00 | 0.00 | 43 | 1002.5 |
| 20260504175939 | 78 | 268 | 0.0 | 9.0 | 0.00 | 0.00 | 0.00 | 41 | 1002.7 |
| 20260504175437 | 78 | 270 | 0.0 | 6.0 | 0.00 | 0.00 | 0.00 | 43 | 1002.7 |
| 20260504174936 | 78 | 217 | 0.0 | 9.0 | 0.00 | 0.00 | 0.00 | 43 | 1002.8 |
| 20260504174435 | 77 | 232 | 0.0 | 8.0 | 0.00 | 0.00 | 0.00 | 43 | 1002.7 |
| 20260504173934 | 78 | 180 | 8.0 | 12.0 | 0.00 | 0.00 | 0.00 | 43 | 1002.7 |
| 20260504173433 | 78 | 217 | 3.0 | 11.0 | 0.00 | 0.00 | 0.00 | 40 | 1002.8 |
| 20260504172933 | 77 | 147 | 0.0 | 12.0 | 0.00 | 0.00 | 0.00 | 44 | 1002.9 |
| 20260504172432 | 77 | 227 | 4.0 | 7.0 | 0.00 | 0.00 | 0.00 | 44 | 1002.8 |
| 20260504171931 | 77 | 185 | 12.0 | 13.0 | 0.00 | 0.00 | 0.00 | 45 | 1002.9 |
| 20260504171430 | 77 | 215 | 0.0 | 7.0 | 0.00 | 0.00 | 0.00 | 43 | 1003.0 |
| 20260504170929 | 77 | 262 | 3.0 | 11.0 | 0.00 | 0.00 | 0.00 | 41 | 1003.0 |
| 20260504170427 | 77 | 168 | 0.0 | 4.0 | 0.00 | 0.00 | 0.00 | 43 | 1003.0 |
| 20260504160415 | 73 | 226 | 0.0 | 13.0 | 0.00 | 0.00 | 0.00 | 46 | 1003.1 |
| 20260504150904 | 71 | 205 | 10.0 | 15.0 | 0.00 | 0.00 | 0.00 | 51 | 1003.2 |
| 20260504150403 | 70 | 251 | 2.0 | 7.0 | 0.00 | 0.00 | 0.00 | 52 | 1003.2 |
| 20260504140853 | 67 | 265 | 5.0 | 7.0 | 0.00 | 0.00 | 0.00 | 55 | 1003.5 |
| 20260504140351 | 67 | 243 | 5.0 | 10.0 | 0.00 | 0.00 | 0.00 | 54 | 1003.5 |